Kissimmee, FL

6:01 AM EST on November 14, 2019 (GMT -0500)
Kissimmee Municipal

Weather History for KISM - August, 2019

Change the Weather History Date:

Sunday, August 4, 2019

  Actual Average Record
Temperature  
Mean Temperature 82 °F -  
Max Temperature 91 °F 91 °F 96 °F (1970)
Min Temperature 75 °F 72 °F 65 °F (1963)
Cooling Degree Days 18    
Growing Degree Days 32 (Base 50)    
Moisture  
Dew Point 76 °F    
Average Humidity 83    
Maximum Humidity 100    
Minimum Humidity 57    
Precipitation  
Precipitation 0.00 in - - ()
Sea Level Pressure  
Sea Level Pressure 30.00 in    
Wind  
Wind Speed 6 mph (SSW)    
Max Wind Speed 15 mph    
Max Gust Speed 18 mph    
Visibility 10 miles    
Events Rain , Thunderstorm    
Averages and records for this station are not official NWS values.
T = Trace of Precipitation, MM = Missing Value Source: NWS Daily Summary

Daily Weather History Graph

Daily Weather History Graph

Search for Another Location

Airport or City:

Astronomy

Aug. 04, 2019 Rise Set
Actual Time 6:49 AM EDT 8:13 PM EDT
Civil Twilight 6:24 AM EDT 8:39 PM EDT
Nautical Twilight 5:53 AM EDT 9:09 PM EDT
Astronomical Twilight 5:22 AM EDT 9:40 PM EDT
Moon 10:36 AM EDT (8/4) 11:13 PM EDT (8/4)
Length of Visible Light 14h 15m
Length of Day
13h 24m
Waxing Crescent, 18% of the Moon is Illuminated
Aug 4
Waxing Crescent
Aug 7
First Quarter
Aug 15
Full
Aug 23
Last Quarter
Aug 30
New

Hourly Weather History & Observations

Time (EDT) Temp. Heat Index Dew Point Humidity Pressure Visibility Wind Dir Wind Speed Gust Speed Precip Events Conditions
12:56 AM 79.0 °F - 77.0 °F 94% 30.01 in 10.0 mi SSE 4.6 mph - N/A   Clear
1:31 AM 78.8 °F - 77.0 °F 94% 30.00 in 10.0 mi South 6.9 mph - N/A   Mostly Cloudy
1:38 AM 78.8 °F - 77.0 °F 94% 29.99 in 10.0 mi South 4.6 mph - N/A   Mostly Cloudy
1:56 AM 79.0 °F - 77.0 °F 94% 30.00 in 10.0 mi South 5.8 mph - N/A   Mostly Cloudy
2:56 AM 78.1 °F - 75.9 °F 93% 29.98 in 10.0 mi SSW 5.8 mph - N/A   Clear
3:56 AM 78.1 °F - 75.9 °F 93% 29.97 in 10.0 mi SW 4.6 mph - N/A   Clear
4:56 AM 77.0 °F - 75.9 °F 96% 29.97 in 10.0 mi SSW 3.5 mph - N/A   Clear
5:24 AM 77.0 °F - 75.2 °F 94% 29.97 in 10.0 mi SSW 3.5 mph - N/A   Partly Cloudy
5:37 AM 77.0 °F - 75.2 °F 94% 29.97 in 10.0 mi SSW 4.6 mph - N/A   Mostly Cloudy
5:56 AM 77.0 °F - 75.9 °F 96% 29.98 in 10.0 mi Calm Calm - N/A   Mostly Cloudy
6:17 AM 75.2 °F - 75.2 °F 100% 29.98 in 10.0 mi Calm Calm - N/A   Partly Cloudy
6:56 AM 75.9 °F - 75.9 °F 100% 30.00 in 8.0 mi SSW 3.5 mph - N/A   Clear
7:56 AM 78.1 °F - 77.0 °F 96% 30.02 in 10.0 mi SSW 3.5 mph - N/A   Partly Cloudy
8:56 AM 81.0 °F 87.9 °F 77.0 °F 88% 30.04 in 10.0 mi SW 5.8 mph - N/A   Clear
9:56 AM 84.0 °F 93.7 °F 77.0 °F 79% 30.04 in 10.0 mi WSW 5.8 mph - N/A   Partly Cloudy
10:18 AM 84.2 °F 92.3 °F 75.2 °F 74% 30.03 in 10.0 mi NW 5.8 mph - N/A   Overcast
10:44 AM 86.0 °F 95.1 °F 75.2 °F 70% 30.03 in 10.0 mi WSW 9.2 mph - N/A   Scattered Clouds
10:56 AM 84.9 °F 93.3 °F 75.0 °F 72% 30.04 in 10.0 mi WSW 5.8 mph - N/A   Mostly Cloudy
11:56 AM 87.1 °F 96.3 °F 75.0 °F 67% 30.03 in 10.0 mi NW 10.4 mph - N/A   Mostly Cloudy
12:03 PM 87.8 °F 97.6 °F 75.2 °F 66% 30.02 in 10.0 mi West 5.8 mph - N/A   Scattered Clouds
12:56 PM 90.0 °F 100.2 °F 75.0 °F 61% 30.01 in 10.0 mi West 8.1 mph - N/A   Clear
1:56 PM 90.0 °F 97.9 °F 73.0 °F 57% 30.00 in 10.0 mi West 10.4 mph - N/A   Partly Cloudy
2:56 PM 88.0 °F 96.5 °F 73.9 °F 63% 29.99 in 10.0 mi SW 3.5 mph - N/A   Scattered Clouds
3:56 PM 89.1 °F 99.1 °F 75.0 °F 63% 29.99 in 10.0 mi South 6.9 mph - N/A   Scattered Clouds
4:48 PM 87.8 °F 97.6 °F 75.2 °F 66% 29.97 in 10.0 mi South 15.0 mph 18.4 mph N/A Thunderstorm Scattered Clouds
4:56 PM 84.0 °F 93.7 °F 77.0 °F 79% 29.99 in 10.0 mi South 11.5 mph 18.4 mph N/A Thunderstorm Thunderstorm
5:16 PM 80.6 °F 85.4 °F 73.4 °F 79% 29.97 in 10.0 mi WSW 6.9 mph - N/A Rain Light Rain
5:56 PM 82.0 °F 91.0 °F 78.1 °F 88% 29.98 in 10.0 mi South 11.5 mph - N/A   Scattered Clouds
6:47 PM 84.2 °F 94.1 °F 77.0 °F 79% 29.97 in 10.0 mi South 10.4 mph - N/A   Partly Cloudy
6:56 PM 84.0 °F 93.7 °F 77.0 °F 79% 29.97 in 10.0 mi South 9.2 mph - N/A   Partly Cloudy
7:56 PM 81.0 °F 86.7 °F 75.0 °F 82% 29.97 in 10.0 mi SSE 8.1 mph - N/A   Clear
8:56 PM 80.1 °F 85.4 °F 75.9 °F 87% 29.99 in 10.0 mi South 5.8 mph - N/A   Clear
9:56 PM 80.1 °F 85.4 °F 75.9 °F 87% 30.01 in 10.0 mi SW 3.5 mph - N/A   Clear
10:56 PM 79.0 °F - 75.9 °F 90% 30.03 in 10.0 mi SW 4.6 mph - N/A   Clear
11:56 PM 79.0 °F - 75.9 °F 90% 30.02 in 10.0 mi SSW 3.5 mph - N/A   Clear